Location: Clarks Summit,Pa.
(41.5000°N, 75.6000°W)
Time: 06:41:20
(UTC-05:00)

Envisat - Pass Details

Date: 06 December 2021
Orbit: 764 x 766 km, 98.2° (Epoch: 28 January)

Event Time Altitude Azimuth Distance (km) Brightness Sun altitude
Rises 05:58:23 0° 2° (N) 3,242 6.1 -13.8°
Reaches altitude 10° 06:00:56 10° 352° (N) 2,312 5.2 -13.4°
Maximum altitude 06:05:18 30° 293° (WNW) 1,356 3.7 -12.6°
Drops below altitude 10° 06:09:39 10° 233° (SW) 2,297 5.2 -11.9°
Sets 06:12:11 0° 223° (SW) 3,219 6.0 -11.4°
